This demonstration page uses our WeatherBlox Daily Observations layout. Learn more.

Left ArrowRight Arrow

44.8408, -93.29828

Hourly Observations for July 18, 2022

Temp ( °F °C ) Dew Point ( °F °C ) Humidity (%) Winds ( mph kmh ) Pressure ( in mb ) Visibility ( mi km ) Precip ( " mm )
12:53 am 00:53 Clear 76 24.4 65 18.3 69 69 S 3 6 29.87 1012 10 16 0.00 0.00
1:53 am 01:53 Clear 75 23.9 65 18.3 71 71 S 3 6 29.87 1012 10 16 0.00 0.00
2:53 am 02:53 Clear 74 23.3 66 18.9 76 76 SSW 3 6 29.88 1012 10 16 0.00 0.00
3:53 am 03:53 Clear 74 23.3 66 18.9 76 76 SW 5 7 29.88 1012 10 16 0.00 0.00
4:53 am 04:53 Clear 74 23.3 66 18.9 76 76 WSW 7 11 29.89 1012 10 16 0.00 0.00
5:53 am 05:53 Mostly Sunny 74 23.3 66 18.9 76 76 SW 5 7 29.90 1012 10 16 0.00 0.00
6:53 am 06:53 Partly Cloudy 74 23.3 66 18.9 76 76 WSW 6 9 29.90 1013 10 16 0.00 0.00
7:53 am 07:53 Partly Cloudy 76 24.4 67 19.4 74 74 WSW 5 7 29.91 1013 10 16 0.00 0.00
8:53 am 08:53 Mostly Sunny 80 26.7 67 19.4 64 64 SW 7 11 29.88 1012 10 16 0.00 0.00
9:53 am 09:53 Mostly Sunny 85 29.4 66 18.9 53 53 W 13 20 29.86 1011 10 16 0.00 0.00
10:53 am 10:53 Sunny 88 31.1 66 18.9 48 48 WSW 12 19 29.86 1011 10 16 0.00 0.00
11:53 am 11:53 Sunny 90 32.2 65 18.3 44 44 W 13 20 29.84 1011 10 16 0.00 0.00
12:53 pm 12:53 Sunny 92 33.3 66 18.9 43 43 W 14 22 29.83 1010 10 16 0.00 0.00
1:53 pm 13:53 Mostly Sunny 93 33.9 64 17.8 38 38 SSW 9 15 29.81 1010 10 16 0.00 0.00
2:53 pm 14:53 Mostly Sunny 95 35 64 17.8 36 36 WSW 12 19 29.80 1009 10 16 0.00 0.00
3:53 pm 15:53 Mostly Sunny 95 35 66 18.9 39 39 SSW 12 19 29.79 1009 10 16 0.00 0.00
4:53 pm 16:53 Mostly Sunny 94 34.4 67 19.4 41 41 SW 9 15 29.78 1008 10 16 0.00 0.00
5:53 pm 17:53 Mostly Sunny 93 33.9 68 20 44 44 S 12 19 29.77 1008 10 16 0.00 0.00
6:53 pm 18:53 Mostly Sunny 92 33.3 68 20 46 46 SSW 13 20 29.75 1008 10 16 0.00 0.00
7:53 pm 19:53 Mostly Sunny 90 32.2 69 20.6 50 50 SSW 13 20 29.74 1007 10 16 0.00 0.00
8:53 pm 20:53 Mostly Sunny 88 31.1 69 20.6 54 54 SSW 9 15 29.74 1007 10 16 0.00 0.00
9:53 pm 21:53 Mostly Clear 86 30 69 20.6 57 57 SW 12 19 29.74 1007 10 16 0.00 0.00
10:53 pm 22:53 Mostly Clear 84 28.9 69 20.6 61 61 SSW 10 17 29.74 1007 10 16 0.00 0.00
11:53 pm 23:53 Mostly Clear 82 27.8 69 20.6 65 65 SSW 9 15 29.73 1007 10 16 0.00 0.00

Powered by AerisWeather